DW3733 Luzzi (cosenza) IT current weather conditions

sailwx.info

Wind from 045 at 10 knots gusting 17

Air temperature 15.0° C
Dewpoint 10.6° C

Last reported at 2017-Apr-29 19:03 UTC.
Time now 2017-Apr-29 19:30 UTC

Location: N 39°27' E 016°16'.
View on Google Maps.

See reports from other nearby stations

  
Tides and Currents Weather Stations Pressure Air Temp Water Temp Dewpoint Dewpoint Depression Visibility Wind Speed Wind Dir Waves Ship Positions
date/time (UTC)wind fromknots sea level pressurealtimeterstation pressurevisibilityair tempwater tempwave heightnotes
2017-Apr-29 19:03 045 10 gusting 17 15.0
2017-Apr-29 18:53 018 7 gusting 14 15.0
2017-Apr-29 18:43 013 6 gusting 14 15.6
2017-Apr-29 18:33 090 6 gusting 14 15.6
2017-Apr-29 18:23 090 5 gusting 13 15.6
2017-Apr-29 18:13 092 6 gusting 11 15.6
2017-Apr-29 18:03 023 2 gusting 10 16.1
2017-Apr-29 17:53 064 3 gusting 11 16.7
2017-Apr-29 17:43 16.7
2017-Apr-29 17:33 090 3 gusting 6 16.7
2017-Apr-29 17:23 318 2 gusting 11 17.2
2017-Apr-29 17:13 090 2 gusting 11 17.2
2017-Apr-29 17:03 270 0 gusting 6 17.2
2017-Apr-29 16:53 225 0 gusting 12 17.2
2017-Apr-29 16:43 060 5 gusting 12 17.2
2017-Apr-29 16:33 180 2 gusting 11 17.2
2017-Apr-29 16:23 089 5 gusting 17 17.2
2017-Apr-29 16:13 090 6 gusting 14 17.2
2017-Apr-29 16:03 083 6 gusting 14 17.8
2017-Apr-29 15:53 083 6 gusting 12 18.3
2017-Apr-29 15:43 093 5 gusting 13 18.9
2017-Apr-29 15:33 067 5 gusting 11 18.9
2017-Apr-29 15:23 090 2 gusting 13 18.9
2017-Apr-29 15:13 055 4 gusting 11 18.9
2017-Apr-29 15:03 116 6 gusting 11 18.9
2017-Apr-29 14:53 022 4 gusting 8 19.4
2017-Apr-29 14:43 089 4 gusting 12 19.4
2017-Apr-29 14:33 027 6 gusting 13 19.4
2017-Apr-29 14:23 086 5 gusting 12 18.9
2017-Apr-29 14:13 090 4 gusting 10 19.4
2017-Apr-29 14:03 066 5 gusting 13 19.4
2017-Apr-29 13:53 090 8 gusting 17 19.4
2017-Apr-29 13:43 075 5 gusting 11 20.0
2017-Apr-29 13:33 014 7 gusting 14 20.0
2017-Apr-29 13:23 078 4 gusting 12 20.6
2017-Apr-29 13:13 057 4 gusting 8 20.6
2017-Apr-29 13:03 130 2 gusting 11 20.6
2017-Apr-29 12:53 129 2 gusting 7 21.1
2017-Apr-29 12:43 090 5 gusting 11 21.1
2017-Apr-29 12:33 043 4 gusting 10 21.7
2017-Apr-29 12:23 055 1 gusting 8 21.1
2017-Apr-29 12:13 041 4 gusting 8 21.1
2017-Apr-29 12:03 022 4 gusting 7 21.1
2017-Apr-29 11:53 354 2 gusting 8 21.7
2017-Apr-29 11:43 326 4 gusting 11 21.7
2017-Apr-29 11:33 21.7
2017-Apr-29 11:23 224 4 gusting 8 21.7
2017-Apr-29 11:13 028 2 gusting 7 21.7
2017-Apr-29 11:03 315 4 gusting 6 22.2
2017-Apr-29 10:53 316 2 gusting 6 21.7
2017-Apr-29 10:43 153 2 gusting 7 21.7
2017-Apr-29 10:33 21.7
2017-Apr-29 10:23 315 3 gusting 7 21.7
2017-Apr-29 10:13 341 4 gusting 8 21.7
2017-Apr-29 10:03 348 2 gusting 6 21.7
2017-Apr-29 09:53 315 0 gusting 5 21.7
2017-Apr-29 09:43 072 1 gusting 5 22.2
2017-Apr-29 09:33 300 0 gusting 4 22.2
2017-Apr-29 09:23 019 1 gusting 2 22.2
2017-Apr-29 09:13 323 0 gusting 6 21.7
2017-Apr-29 09:03 21.7
2017-Apr-29 08:53 003 0 gusting 5 21.1
2017-Apr-29 08:43 026 1 gusting 4 21.1
2017-Apr-29 08:33 063 0 gusting 2 20.6
2017-Apr-29 08:23 198 0 gusting 5 20.0
2017-Apr-29 08:13 349 0 gusting 5 20.0
2017-Apr-29 08:03 090 1 gusting 6 19.4
2017-Apr-29 07:53 18.9
2017-Apr-29 07:43 270 0 gusting 2 18.9
2017-Apr-29 07:33 045 1 gusting 2 18.3
2017-Apr-29 07:23 18.3
2017-Apr-29 07:13 356 0 gusting 2 18.3
2017-Apr-29 07:03 335 0 gusting 2 17.8
2017-Apr-29 06:53 015 0 gusting 5 17.8
2017-Apr-29 06:43 188 1 gusting 4 17.2
2017-Apr-29 06:33 350 0 gusting 5 16.7
2017-Apr-29 06:23 025 2 gusting 5 16.7
2017-Apr-29 06:13 225 0 gusting 4 16.7
2017-Apr-29 06:03 049 0 gusting 2 16.7
2017-Apr-29 05:53 017 0 gusting 4 16.1
2017-Apr-29 05:43 045 0 gusting 4 16.1
2017-Apr-29 05:33 004 0 gusting 2 16.1
2017-Apr-29 05:23 358 0 gusting 2 16.7
2017-Apr-29 05:13 338 0 gusting 2 16.7
2017-Apr-29 05:03 316 0 gusting 1 16.7
2017-Apr-29 04:53 011 0 gusting 6 16.7
2017-Apr-29 04:43 062 2 gusting 5 16.7
2017-Apr-29 04:33 16.7
2017-Apr-29 04:23 242 16.7
2017-Apr-29 04:13 17.2
2017-Apr-29 04:03 315 17.8
2017-Apr-29 03:53 17.8
2017-Apr-29 03:43 221 0 gusting 1 18.3
2017-Apr-29 03:33 312 0 gusting 2 18.3
2017-Apr-29 03:23 167 0 gusting 4 17.8
2017-Apr-29 03:13 270 0 gusting 2 17.8
2017-Apr-29 03:03 105 17.8
2017-Apr-29 02:53 054 2 gusting 6 17.2
2017-Apr-29 02:43 045 4 gusting 6 17.8
2017-Apr-29 02:33 090 2 gusting 6 18.3
2017-Apr-29 02:23 338 1 gusting 2 18.9
2017-Apr-29 02:13 280 18.9
2017-Apr-29 02:03 180 0 gusting 6 18.3
2017-Apr-29 01:53 225 2 gusting 5 18.3
2017-Apr-29 01:43 175 1 gusting 5 18.9
2017-Apr-29 01:33 239 0 gusting 5 18.3
2017-Apr-29 01:23 226 1 gusting 5 18.3
2017-Apr-29 01:13 225 0 gusting 2 17.8
2017-Apr-29 01:03 257 0 gusting 1 17.2
2017-Apr-29 00:53 180 0 gusting 2 15.6
2017-Apr-29 00:43 101 0 gusting 2 13.9
2017-Apr-29 00:33 090 1 gusting 2 13.9
2017-Apr-29 00:23 090 0 gusting 2 14.4
2017-Apr-29 00:13 090 0 gusting 1 15.0
2017-Apr-29 00:03 090 0 gusting 1 16.1
2017-Apr-28 23:53 077 0 gusting 4 16.7
2017-Apr-28 23:43 060 0 gusting 2 18.3
2017-Apr-28 23:33 18.9
2017-Apr-28 23:23 135 0 gusting 2 19.4
2017-Apr-28 23:13 060 0 gusting 2 18.3
2017-Apr-28 23:03 308 0 gusting 2 17.8
2017-Apr-28 22:53 315 17.8
2017-Apr-28 22:43 089 2 gusting 5 17.8
2017-Apr-28 22:33 049 0 gusting 1 18.3
2017-Apr-28 22:23 315 18.3
2017-Apr-28 22:13 090 1 gusting 4 18.9
2017-Apr-28 22:03 315 19.4
2017-Apr-28 21:53 18.9
2017-Apr-28 21:43 045 2 gusting 8 18.9
2017-Apr-28 21:33 020 6 gusting 8 18.9
2017-Apr-28 21:23 090 1 gusting 5 18.9
2017-Apr-28 21:13 336 1 gusting 6 20.0
2017-Apr-28 21:03 288 1 gusting 6 21.1
2017-Apr-28 20:53 148 3 gusting 6 18.9
2017-Apr-28 20:43 212 0 gusting 5 18.3
2017-Apr-28 20:33 270 18.3
2017-Apr-28 20:23 206 0 gusting 2 18.9
2017-Apr-28 20:13 085 0 gusting 2 19.4
2017-Apr-28 20:03 045 1 gusting 2 20.0
2017-Apr-28 19:53 241 0 gusting 2 20.0
2017-Apr-28 19:43 045 0 gusting 2 19.4
2017-Apr-28 19:33 270 1 gusting 5 19.4
2017-Apr-28 19:23 004 0 gusting 2 19.4
2017-Apr-28 19:13 090 0 gusting 5 18.9
2017-Apr-28 19:03 090 0 gusting 2 20.0
2017-Apr-28 18:53 135 20.6
2017-Apr-28 18:43 084 20.6
2017-Apr-28 18:33 359 0 gusting 2 21.1
2017-Apr-28 18:23 039 2 gusting 5 21.1
2017-Apr-28 18:13 031 1 gusting 5 21.1
2017-Apr-28 18:03 21.7
2017-Apr-28 17:53 045 0 gusting 2 22.2
2017-Apr-28 17:43 036 1 gusting 4 22.2
2017-Apr-28 17:33 090 2 gusting 4 23.3
2017-Apr-28 17:23 066 1 gusting 2 23.9
2017-Apr-28 17:13 327 0 gusting 4 24.4
2017-Apr-28 17:03 012 1 gusting 2 25.0
2017-Apr-28 16:53 045 0 gusting 4 25.6
2017-Apr-28 16:43 312 0 gusting 6 26.1
2017-Apr-28 16:33 291 0 gusting 5 26.7
2017-Apr-28 16:23 257 1 gusting 5 26.7
2017-Apr-28 16:13 242 3 gusting 7 27.2
2017-Apr-28 16:03 099 4 gusting 7 27.2
2017-Apr-28 15:53 225 4 gusting 8 27.2
2017-Apr-28 15:43 225 2 gusting 7 27.2
2017-Apr-28 15:33 257 4 gusting 8 27.8
2017-Apr-28 15:23 192 5 gusting 11 27.8
2017-Apr-28 15:13 211 4 gusting 8 27.8
2017-Apr-28 15:03 256 3 gusting 8 27.8
2017-Apr-28 14:53 200 4 gusting 10 27.8
2017-Apr-28 14:43 339 5 gusting 13 27.8
2017-Apr-28 14:33 180 5 gusting 11 27.8
2017-Apr-28 14:23 195 5 gusting 13 28.3
2017-Apr-28 14:13 113 4 gusting 8 28.9
2017-Apr-28 14:03 225 1 gusting 6 28.9
2017-Apr-28 13:53 230 4 gusting 10 28.9
2017-Apr-28 13:43 269 4 gusting 10 28.9
2017-Apr-28 13:33 257 3 gusting 13 29.4
2017-Apr-28 13:23 214 5 gusting 12 30.0
2017-Apr-28 13:13 30.0
2017-Apr-28 13:03 215 2 gusting 8 30.0
2017-Apr-28 12:53 270 2 gusting 6 30.6
2017-Apr-28 12:43 187 1 gusting 7 30.0
2017-Apr-28 12:33 265 2 gusting 6 30.0
2017-Apr-28 12:23 180 5 gusting 11 29.4
2017-Apr-28 12:13 249 2 gusting 8 30.0
2017-Apr-28 12:03 303 2 gusting 8 30.0
2017-Apr-28 11:53 264 1 gusting 11 29.4
2017-Apr-28 11:43 282 6 gusting 10 30.0
2017-Apr-28 11:33 205 3 gusting 6 30.0
2017-Apr-28 11:23 301 1 gusting 6 30.0
2017-Apr-28 11:13 211 2 gusting 6 29.4
2017-Apr-28 11:03 270 4 gusting 8 29.4
2017-Apr-28 10:53 225 2 gusting 5 28.9
2017-Apr-28 10:43 188 0 gusting 4 28.3
2017-Apr-28 10:33 139 2 gusting 5 27.8
2017-Apr-28 10:23 247 0 gusting 5 27.8
2017-Apr-28 10:13 342 2 gusting 5 27.8
2017-Apr-28 10:03 045 2 gusting 5 27.8
2017-Apr-28 09:53 305 0 gusting 5 27.2
2017-Apr-28 09:43 243 0 gusting 4 26.7
2017-Apr-28 09:33 075 2 gusting 5 26.7
2017-Apr-28 09:23 315 0 gusting 4 26.7
2017-Apr-28 09:13 225 0 gusting 4 26.1
2017-Apr-28 09:03 004 1 gusting 4 25.6
2017-Apr-28 08:53 180 1 gusting 5 25.0
2017-Apr-28 08:43 241 0 gusting 2 25.0
2017-Apr-28 08:33 254 0 gusting 2 24.4
2017-Apr-28 08:23 010 23.9
2017-Apr-28 08:13 23.3
2017-Apr-28 08:03 22.8
2017-Apr-28 07:53 135 0 gusting 2 22.2
2017-Apr-28 07:43 350 0 gusting 2 21.7
2017-Apr-28 07:33 272 20.6
2017-Apr-28 07:23 090 0 gusting 2 18.9
2017-Apr-28 07:13 280 0 gusting 4 18.3
2017-Apr-28 07:03 022 0 gusting 2 17.8
2017-Apr-28 06:53 315 0 gusting 2 17.2
2017-Apr-28 06:43 347 0 gusting 2 17.2
2017-Apr-28 06:33 346 0 gusting 2 16.1
2017-Apr-28 06:23 315 15.6
2017-Apr-28 06:13 314 0 gusting 2 15.0
2017-Apr-28 06:03 315 0 gusting 2 15.0
2017-Apr-28 05:53 306 15.0
2017-Apr-28 05:43 259 15.0
2017-Apr-28 05:33 296 15.0
2017-Apr-28 05:23 315 0 gusting 0 15.0
2017-Apr-28 05:13 270 15.0
2017-Apr-28 05:03 090 1 gusting 2 14.4
2017-Apr-28 04:53 262 0 gusting 2 15.0
2017-Apr-28 04:43 270 0 gusting 2 14.4
2017-Apr-28 04:33 240 0 gusting 2 13.3
2017-Apr-28 04:23 206 0 gusting 2 13.3
2017-Apr-28 04:13 315 13.3
2017-Apr-28 04:03 282 0 gusting 4 12.8
2017-Apr-28 03:53 033 12.8
2017-Apr-28 03:43 253 0 gusting 5 12.2
2017-Apr-28 03:33 062 1 gusting 2 11.7
2017-Apr-28 03:23 135 2 gusting 2 11.7
2017-Apr-28 03:13 225 12.2
2017-Apr-28 03:03 060 0 gusting 2 12.2
2017-Apr-28 02:53 233 12.2
2017-Apr-28 02:43 213 11.7
2017-Apr-28 02:33 099 0 gusting 2 11.7
2017-Apr-28 02:23 090 12.2
2017-Apr-28 02:13 060 0 gusting 2 12.2
2017-Apr-28 02:03 315 12.2
2017-Apr-28 01:53 12.2
2017-Apr-28 01:43 135 0 gusting 1 12.2
2017-Apr-28 01:33 115 0 gusting 1 13.3
2017-Apr-28 01:23 233 12.8
2017-Apr-28 01:13 100 1 gusting 2 13.3
2017-Apr-28 01:03 315 0 gusting 1 13.3
2017-Apr-28 00:53 263 13.3
2017-Apr-28 00:43 192 0 gusting 1 13.9
2017-Apr-28 00:33 045 0 gusting 2 13.9
2017-Apr-28 00:23 090 1 gusting 2 14.4
2017-Apr-28 00:13 258 0 gusting 2 13.9
2017-Apr-28 00:03 13.3
2017-Apr-27 23:53 165 13.3
2017-Apr-27 23:43 090 0 gusting 1 13.9
2017-Apr-27 23:33 13.9
2017-Apr-27 23:23 270 13.9
2017-Apr-27 23:13 315 14.4
2017-Apr-27 23:03 321 0 gusting 2 14.4
2017-Apr-27 22:53 275 0 gusting 2 13.9
2017-Apr-27 22:43 090 0 gusting 1 13.9
2017-Apr-27 22:33 083 1 gusting 2 13.9
2017-Apr-27 22:23 090 0 gusting 4 13.9
2017-Apr-27 22:13 138 1 gusting 2 13.9
2017-Apr-27 22:03 315 13.3
2017-Apr-27 21:53 045 0 gusting 2 12.8
2017-Apr-27 21:43 090 0 gusting 1 13.3
2017-Apr-27 21:33 037 0 gusting 2 13.3
2017-Apr-27 21:23 011 0 gusting 2 13.9
2017-Apr-27 21:13 279 15.0
2017-Apr-27 21:03 083 0 gusting 1 15.6
2017-Apr-27 20:53 15.0
2017-Apr-27 20:43 333 0 gusting 2 14.4
2017-Apr-27 20:33 114 1 gusting 2 13.9
2017-Apr-27 20:23 094 0 gusting 1 14.4
2017-Apr-27 20:13 135 0 gusting 0 15.6
2017-Apr-27 20:03 090 15.6
2017-Apr-27 19:53 003 15.6
2017-Apr-27 19:43 315 0 gusting 4 15.0
2017-Apr-27 19:33 090 1 gusting 2 15.6
2017-Apr-27 19:23 090 0 gusting 2 15.6
2017-Apr-27 19:13 077 2 gusting 4 15.6
2017-Apr-27 19:03 070 0 gusting 2 16.7